1 Minute Report
Date Time Wind Direction Wind Speed Wind Gust Wind Variable Altimeter Temperature Dewpoint Relative Humidity Visibility Ceiling Precip Present Weather Density Alt Wind Chill Heat Index
18/10/20 13:26 300 06 N/A N/A 30.37 39(F), 4(C) 32(F), 0(C) 75% 10 CLR N/A N/A N/A 35 F N/A 2525
18/10/20 13:25 300 06 N/A N/A 30.37 39(F), 4(C) 32(F), 0(C) 75% 10 CLR N/A N/A N/A 35 F N/A 2524
18/10/20 13:24 300 06 N/A N/A 30.37 39(F), 4(C) 32(F), 0(C) 75% 10 CLR N/A N/A N/A 35 F N/A 2523
18/10/20 13:23 300 06 N/A N/A 30.37 39(F), 4(C) 32(F), 0(C) 75% 10 CLR N/A N/A N/A 35 F N/A 2522
18/10/20 13:22 290 05 N/A N/A 30.37 39(F), 4(C) 32(F), 0(C) 75% 10 CLR N/A N/A N/A 35 F N/A 2521
18/10/20 13:21 290 05 N/A N/A 30.37 39(F), 4(C) 32(F), 0(C) 75% 10 CLR N/A N/A N/A 35 F N/A 2520
18/10/20 13:20 290 05 N/A N/A 30.36 39(F), 4(C) 32(F), 0(C) 75% 10 CLR N/A N/A N/A 35 F N/A 2519
18/10/20 13:19 290 06 N/A N/A 30.36 39(F), 4(C) 32(F), 0(C) 75% 10 CLR N/A N/A N/A 35 F N/A 2518
18/10/20 13:18 290 06 N/A N/A 30.36 39(F), 4(C) 32(F), 0(C) 75% 10 CLR N/A N/A N/A 35 F N/A 2517
18/10/20 13:17 290 06 N/A N/A 30.36 39(F), 4(C) 32(F), 0(C) 75% 10 CLR N/A N/A N/A 35 F N/A 2516
18/10/20 13:16 290 06 N/A N/A 30.36 38(F), 3(C) 32(F), 0(C) 81% 10 CLR N/A N/A N/A 33 F N/A 2515
18/10/20 13:15 290 06 N/A N/A 30.36 38(F), 3(C) 32(F), 0(C) 81% 10 CLR N/A N/A N/A 33 F N/A 2514
18/10/20 13:14 290 05 N/A N/A 30.36 38(F), 3(C) 32(F), 0(C) 81% 10 CLR N/A N/A N/A 34 F N/A 2513
18/10/20 13:13 290 05 N/A N/A 30.36 38(F), 3(C) 32(F), 0(C) 81% 10 CLR N/A N/A N/A 34 F N/A 2512
18/10/20 13:12 290 06 N/A N/A 30.36 38(F), 3(C) 32(F), 0(C) 81% 10 CLR N/A N/A N/A 33 F N/A 2511
18/10/20 13:11 290 05 N/A N/A 30.36 38(F), 3(C) 32(F), 0(C) 81% 10 CLR N/A N/A N/A 34 F N/A 2510
18/10/20 13:10 290 05 N/A N/A 30.36 38(F), 3(C) 32(F), 0(C) 81% 10 CLR N/A N/A N/A 34 F N/A 2509
18/10/20 13:09 280 06 N/A N/A 30.36 38(F), 3(C) 32(F), 0(C) 81% 10 CLR N/A N/A N/A 33 F N/A 2508
18/10/20 13:08 280 06 N/A N/A 30.36 38(F), 3(C) 32(F), 0(C) 81% 10 CLR N/A N/A N/A 33 F N/A 2507
18/10/20 13:07 290 06 N/A N/A 30.36 38(F), 3(C) 32(F), 0(C) 81% 10 CLR N/A N/A N/A 33 F N/A 2506
18/10/20 13:06 290 06 N/A N/A 30.36 38(F), 3(C) 32(F), 0(C) 81% 10 CLR N/A N/A N/A 33 F N/A 2505
18/10/20 13:05 290 06 N/A N/A 30.36 38(F), 3(C) 32(F), 0(C) 81% 10 CLR N/A N/A N/A 33 F N/A 2504
18/10/20 13:04 280 07 N/A N/A 30.36 38(F), 3(C) 32(F), 0(C) 81% 10 CLR N/A N/A N/A 33 F N/A 2503
18/10/20 13:03 280 07 N/A N/A 30.36 38(F), 3(C) 32(F), 0(C) 81% 10 CLR N/A N/A N/A 33 F N/A 2502
18/10/20 13:02 290 06 N/A N/A 30.36 38(F), 3(C) 32(F), 0(C) 81% 10 CLR N/A N/A N/A 33 F N/A 2501
18/10/20 13:01 290 07 N/A N/A 30.36 38(F), 3(C) 32(F), 0(C) 81% 10 CLR N/A N/A N/A 33 F N/A 2500
18/10/20 13:00 290 07 N/A N/A 30.36 38(F), 3(C) 32(F), 0(C) 81% 10 CLR N/A N/A N/A 33 F N/A 2499
18/10/20 12:59 290 07 N/A N/A 30.36 38(F), 3(C) 32(F), 0(C) 81% 10 CLR N/A N/A N/A 33 F N/A 2498
18/10/20 12:58 290 06 N/A N/A 30.36 38(F), 3(C) 32(F), 0(C) 81% 10 CLR N/A N/A N/A 33 F N/A 2497
18/10/20 12:57 290 06 N/A N/A 30.36 38(F), 3(C) 32(F), 0(C) 81% 10 CLR N/A N/A N/A 33 F N/A 2496
18/10/20 12:56 290 06 N/A N/A 30.36 38(F), 3(C) 32(F), 0(C) 81% 10 CLR N/A N/A N/A 33 F N/A 2495
18/10/20 12:55 280 06 N/A N/A 30.36 38(F), 3(C) 32(F), 0(C) 81% 10 CLR N/A N/A N/A 33 F N/A 2494
18/10/20 12:54 280 06 N/A N/A 30.36 38(F), 3(C) 32(F), 0(C) 81% 10 CLR N/A N/A N/A 33 F N/A 2493
18/10/20 12:53 280 06 N/A N/A 30.36 38(F), 3(C) 32(F), 0(C) 81% 10 CLR N/A N/A N/A 33 F N/A 2492
18/10/20 12:52 280 06 N/A N/A 30.36 38(F), 3(C) 32(F), 0(C) 81% 10 CLR N/A N/A N/A 33 F N/A 2491
18/10/20 12:51 290 06 N/A N/A 30.36 38(F), 3(C) 32(F), 0(C) 81% 10 CLR N/A N/A N/A 33 F N/A 2490
18/10/20 12:50 290 06 N/A N/A 30.36 38(F), 3(C) 32(F), 0(C) 81% 10 CLR N/A N/A N/A 33 F N/A 2489
18/10/20 12:49 290 06 N/A N/A 30.36 38(F), 3(C) 32(F), 0(C) 81% 10 CLR N/A N/A N/A 33 F N/A 2488
18/10/20 12:48 290 06 N/A N/A 30.36 38(F), 3(C) 32(F), 0(C) 81% 10 CLR N/A N/A N/A 33 F N/A 2487
18/10/20 12:47 290 06 N/A N/A 30.36 38(F), 3(C) 32(F), 0(C) 81% 10 CLR N/A N/A N/A 33 F N/A 2486
18/10/20 12:46 290 06 N/A N/A 30.36 38(F), 3(C) 32(F), 0(C) 81% 10 CLR N/A N/A N/A 33 F N/A 2485
18/10/20 12:45 290 06 N/A N/A 30.36 38(F), 3(C) 32(F), 0(C) 81% 10 CLR N/A N/A N/A 33 F N/A 2484
18/10/20 12:44 290 06 N/A N/A 30.36 38(F), 3(C) 32(F), 0(C) 81% 10 CLR N/A N/A N/A 33 F N/A 2483
18/10/20 12:43 300 05 N/A N/A 30.36 38(F), 3(C) 32(F), 0(C) 81% 10 CLR N/A N/A N/A 34 F N/A 2482
18/10/20 12:42 300 05 N/A N/A 30.36 38(F), 3(C) 32(F), 0(C) 81% 10 CLR N/A N/A N/A 34 F N/A 2481
18/10/20 12:41 300 05 N/A N/A 30.36 38(F), 3(C) 32(F), 0(C) 81% 10 CLR N/A N/A N/A 34 F N/A 2480
18/10/20 12:40 300 05 N/A N/A 30.36 38(F), 3(C) 32(F), 0(C) 81% 10 CLR N/A N/A N/A 34 F N/A 2479
18/10/20 12:39 290 06 N/A N/A 30.36 38(F), 3(C) 32(F), 0(C) 81% 10 CLR N/A N/A N/A 33 F N/A 2478
18/10/20 12:38 300 06 N/A N/A 30.36 38(F), 3(C) 32(F), 0(C) 81% 10 CLR N/A N/A N/A 33 F N/A 2477
18/10/20 12:37 290 05 N/A N/A 30.36 38(F), 3(C) 32(F), 0(C) 81% 10 CLR N/A N/A N/A 34 F N/A 2476
18/10/20 12:36 290 05 N/A N/A 30.36 38(F), 3(C) 32(F), 0(C) 81% 10 CLR N/A N/A N/A 34 F N/A 2475
18/10/20 12:35 290 05 N/A N/A 30.36 38(F), 3(C) 32(F), 0(C) 81% 10 CLR N/A N/A N/A 34 F N/A 2474
18/10/20 12:34 290 05 N/A N/A 30.35 38(F), 3(C) 32(F), 0(C) 81% 10 CLR N/A N/A N/A 34 F N/A 2473
18/10/20 12:33 290 05 N/A N/A 30.35 38(F), 3(C) 32(F), 0(C) 81% 10 CLR N/A N/A N/A 34 F N/A 2472
18/10/20 12:32 290 06 N/A N/A 30.35 38(F), 3(C) 32(F), 0(C) 81% 10 CLR N/A N/A N/A 33 F N/A 2471
18/10/20 12:31 290 06 N/A N/A 30.36 38(F), 3(C) 32(F), 0(C) 81% 10 CLR N/A N/A N/A 33 F N/A 2470
18/10/20 12:30 300 05 N/A N/A 30.36 38(F), 3(C) 32(F), 0(C) 81% 10 CLR N/A N/A N/A 34 F N/A 2469
18/10/20 12:29 300 05 N/A N/A 30.35 38(F), 3(C) 32(F), 0(C) 81% 10 CLR N/A N/A N/A 34 F N/A 2468
18/10/20 12:28 290 05 N/A N/A 30.35 38(F), 3(C) 32(F), 0(C) 81% 10 CLR N/A N/A N/A 34 F N/A 2467
18/10/20 12:27 290 05 N/A N/A 30.35 38(F), 3(C) 32(F), 0(C) 81% 10 CLR N/A N/A N/A 34 F N/A 2466
18/10/20 12:26 300 04 N/A N/A 30.35 38(F), 3(C) 32(F), 0(C) 81% 10 CLR N/A N/A N/A 38 F N/A 2465
18/10/20 12:25 300 04 N/A N/A 30.35 38(F), 3(C) 32(F), 0(C) 81% 10 CLR N/A N/A N/A 38 F N/A 2464
18/10/20 12:24 290 04 N/A N/A 30.35 38(F), 3(C) 32(F), 0(C) 81% 10 CLR N/A N/A N/A 38 F N/A 2463
18/10/20 12:23 290 04 N/A N/A 30.35 38(F), 3(C) 32(F), 0(C) 81% 10 CLR N/A N/A N/A 38 F N/A 2462
18/10/20 12:22 300 04 N/A N/A 30.35 38(F), 3(C) 32(F), 0(C) 81% 10 CLR N/A N/A N/A 38 F N/A 2461
18/10/20 12:21 300 04 N/A N/A 30.35 38(F), 3(C) 32(F), 0(C) 81% 10 CLR N/A N/A N/A 38 F N/A 2460
18/10/20 12:20 300 04 N/A N/A 30.35 38(F), 3(C) 32(F), 0(C) 81% 10 CLR N/A N/A N/A 38 F N/A 2459
18/10/20 12:19 290 04 N/A N/A 30.35 38(F), 3(C) 32(F), 0(C) 81% 10 CLR N/A N/A N/A 38 F N/A 2458
18/10/20 12:18 290 05 N/A N/A 30.35 38(F), 3(C) 32(F), 0(C) 81% 10 CLR N/A N/A N/A 34 F N/A 2457
18/10/20 12:17 290 05 N/A N/A 30.35 38(F), 3(C) 32(F), 0(C) 81% 10 CLR N/A N/A N/A 34 F N/A 2456
18/10/20 12:16 290 05 N/A N/A 30.35 39(F), 4(C) 32(F), 0(C) 75% 10 CLR N/A N/A N/A 35 F N/A 2455
18/10/20 12:15 290 04 N/A N/A 30.35 39(F), 4(C) 32(F), 0(C) 75% 10 CLR N/A N/A N/A 39 F N/A 2454
18/10/20 12:14 290 04 N/A N/A 30.35 39(F), 4(C) 32(F), 0(C) 75% 10 CLR N/A N/A N/A 39 F N/A 2453
18/10/20 12:13 290 03 N/A N/A 30.35 39(F), 4(C) 32(F), 0(C) 75% 10 CLR N/A N/A N/A 39 F N/A 2452
18/10/20 12:12 300 03 N/A N/A 30.35 39(F), 4(C) 32(F), 0(C) 75% 10 CLR N/A N/A N/A 39 F N/A 2451
18/10/20 12:11 300 03 N/A N/A 30.35 39(F), 4(C) 32(F), 0(C) 75% 10 CLR N/A N/A N/A 39 F N/A 2450
18/10/20 12:10 300 03 N/A N/A 30.35 39(F), 4(C) 32(F), 0(C) 75% 10 CLR N/A N/A N/A 39 F N/A 2449
18/10/20 12:09 300 03 N/A N/A 30.35 38(F), 3(C) 32(F), 0(C) 81% 10 CLR N/A N/A N/A 38 F N/A 2448
18/10/20 12:08 290 03 N/A N/A 30.35 38(F), 3(C) 32(F), 0(C) 81% 10 CLR N/A N/A N/A 38 F N/A 2447
18/10/20 12:07 290 04 N/A N/A 30.35 38(F), 3(C) 32(F), 0(C) 81% 10 CLR N/A N/A N/A 38 F N/A 2446
18/10/20 12:06 290 05 N/A N/A 30.35 38(F), 3(C) 32(F), 0(C) 81% 10 CLR N/A N/A N/A 34 F N/A 2445
18/10/20 12:05 290 05 N/A N/A 30.34 38(F), 3(C) 32(F), 0(C) 81% 10 CLR N/A N/A N/A 34 F N/A 2444
18/10/20 12:04 290 05 N/A N/A 30.34 38(F), 3(C) 32(F), 0(C) 81% 10 CLR N/A N/A N/A 34 F N/A 2443
18/10/20 12:03 290 05 N/A N/A 30.34 38(F), 3(C) 32(F), 0(C) 81% 10 CLR N/A N/A N/A 34 F N/A 2442
18/10/20 12:02 280 06 N/A N/A 30.34 38(F), 3(C) 32(F), 0(C) 81% 10 CLR N/A N/A N/A 33 F N/A 2441
18/10/20 12:01 280 06 N/A N/A 30.34 38(F), 3(C) 32(F), 0(C) 81% 10 CLR N/A N/A N/A 33 F N/A 2440
18/10/20 12:00 280 06 N/A N/A 30.34 37(F), 3(C) 32(F), 0(C) 81% 10 CLR N/A N/A N/A 32 F N/A 2439
18/10/20 11:59 270 06 N/A N/A 30.34 37(F), 3(C) 32(F), 0(C) 81% 10 CLR N/A N/A N/A 32 F N/A 2438
18/10/20 11:58 270 06 N/A N/A 30.34 37(F), 3(C) 32(F), 0(C) 81% 10 CLR N/A N/A N/A 32 F N/A 2437
18/10/20 11:57 280 06 N/A N/A 30.34 37(F), 3(C) 32(F), 0(C) 81% 10 CLR N/A N/A N/A 32 F N/A 2436
18/10/20 11:56 270 06 N/A N/A 30.34 37(F), 3(C) 32(F), 0(C) 81% 10 CLR N/A N/A N/A 32 F N/A 2435
18/10/20 11:55 270 06 N/A N/A 30.34 37(F), 3(C) 32(F), 0(C) 81% 10 CLR N/A N/A N/A 32 F N/A 2434
18/10/20 11:54 270 06 N/A N/A 30.34 37(F), 3(C) 32(F), 0(C) 81% 10 CLR N/A N/A N/A 32 F N/A 2433
18/10/20 11:53 270 05 N/A N/A 30.34 37(F), 3(C) 32(F), 0(C) 81% 10 CLR N/A N/A N/A 33 F N/A 2432
18/10/20 11:52 270 05 N/A N/A 30.34 37(F), 3(C) 32(F), 0(C) 81% 10 CLR N/A N/A N/A 33 F N/A 2431
18/10/20 11:51 270 05 N/A N/A 30.34 37(F), 3(C) 32(F), 0(C) 81% 10 CLR N/A N/A N/A 33 F N/A 2430
18/10/20 11:50 270 04 N/A N/A 30.34 37(F), 3(C) 32(F), 0(C) 81% 10 CLR N/A N/A N/A 37 F N/A 2429
18/10/20 11:49 270 04 N/A N/A 30.34 37(F), 3(C) 32(F), 0(C) 81% 10 CLR N/A N/A N/A 37 F N/A 2428
18/10/20 11:48 280 03 N/A N/A 30.34 37(F), 3(C) 32(F), 0(C) 81% 10 CLR N/A N/A N/A 37 F N/A 2427
18/10/20 11:47 280 03 N/A N/A 30.34 37(F), 3(C) 32(F), 0(C) 81% 10 CLR N/A N/A N/A 37 F N/A 2426
18/10/20 11:46 280 03 N/A N/A 30.34 37(F), 3(C) 32(F), 0(C) 81% 10 CLR N/A N/A N/A 37 F N/A 2425
18/10/20 11:45 270 03 N/A N/A 30.34 37(F), 3(C) 32(F), 0(C) 81% 10 CLR N/A N/A N/A 37 F N/A 2424
18/10/20 11:44 270 04 N/A N/A 30.34 37(F), 3(C) 32(F), 0(C) 81% 10 CLR N/A N/A N/A 37 F N/A 2423
18/10/20 11:43 270 04 N/A N/A 30.34 37(F), 3(C) 32(F), 0(C) 81% 10 CLR N/A N/A N/A 37 F N/A 2422
18/10/20 11:42 270 04 N/A N/A 30.34 37(F), 3(C) 32(F), 0(C) 81% 10 CLR N/A N/A N/A 37 F N/A 2421
18/10/20 11:41 270 04 N/A N/A 30.34 37(F), 3(C) 32(F), 0(C) 81% 10 CLR N/A N/A N/A 37 F N/A 2420
18/10/20 11:40 270 04 N/A N/A 30.34 37(F), 3(C) 32(F), 0(C) 81% 10 CLR N/A N/A N/A 37 F N/A 2419
18/10/20 11:39 270 04 N/A N/A 30.34 37(F), 3(C) 32(F), 0(C) 81% 10 CLR N/A N/A N/A 37 F N/A 2418
18/10/20 11:38 270 04 N/A N/A 30.34 37(F), 3(C) 32(F), 0(C) 81% 10 CLR N/A N/A N/A 37 F N/A 2417
18/10/20 11:37 270 04 N/A N/A 30.34 37(F), 3(C) 32(F), 0(C) 81% 10 CLR N/A N/A N/A 37 F N/A 2416
18/10/20 11:36 260 04 N/A N/A 30.34 37(F), 3(C) 32(F), 0(C) 81% 10 CLR N/A N/A N/A 37 F N/A 2415
18/10/20 11:35 260 04 N/A N/A 30.34 37(F), 3(C) 32(F), 0(C) 81% 10 CLR N/A N/A N/A 37 F N/A 2414
18/10/20 11:34 260 03 N/A N/A 30.34 37(F), 3(C) 32(F), 0(C) 81% 10 CLR N/A N/A N/A 37 F N/A 2413
18/10/20 11:33 260 03 N/A N/A 30.34 37(F), 3(C) 32(F), 0(C) 81% 10 CLR N/A N/A N/A 37 F N/A 2412
18/10/20 11:32 260 03 N/A N/A 30.34 37(F), 3(C) 32(F), 0(C) 81% 10 CLR N/A N/A N/A 37 F N/A 2411
18/10/20 11:31 260 03 N/A N/A 30.34 37(F), 3(C) 32(F), 0(C) 81% 10 CLR N/A N/A N/A 37 F N/A 2410
18/10/20 11:30 260 03 N/A N/A 30.33 37(F), 3(C) 32(F), 0(C) 81% 10 CLR N/A N/A N/A 37 F N/A 2409
18/10/20 11:29 260 03 N/A N/A 30.33 37(F), 3(C) 32(F), 0(C) 81% 10 CLR N/A N/A N/A 37 F N/A 2408
18/10/20 11:28 260 03 N/A N/A 30.33 37(F), 3(C) 32(F), 0(C) 81% 10 CLR N/A N/A N/A 37 F N/A 2407
18/10/20 11:27 260 03 N/A N/A 30.33 38(F), 3(C) 32(F), 0(C) 81% 10 CLR N/A N/A N/A 38 F N/A 2406
18/10/20 11:26 260 03 N/A N/A 30.33 38(F), 3(C) 32(F), 0(C) 81% 10 CLR N/A N/A N/A 38 F N/A 2405